OpenBCM V1.13 (Linux)

Packet Radio Mailbox

DB0FHN

[JN59NK Nuernberg]

 Login: GUEST





  
I0OJJ  > KEPS     22.02.25 06:13l 326 Lines 15583 Bytes #999 (0) @ AMSAT
BID : ORB25053.1
Read: DJ6UX GUEST
Subj: 2Line Orbital Elements 25053.AMSAT
Path: DB0FHN<DB0FFL<OE5XBL<OE6XPE<DB0ERF<DK0WUE<PD0LPM<PI8ZTM<I0OJJ
Sent: 250222/0345z @:I0OJJ.ITA.EU [Rome] obcm1.08-6-g5b69
From: I0OJJ @ I0OJJ.ITA.EU (Gustavo)
To:   KEPS @ AMSAT
X-Info: This message was generated automatically


QST de W1STR

AMSAT Orbital Elements for Amateur Satellites in TLE Format
From Orbital Analysis Office
New England Sci-Tech STEM Education Center
Natick, MA February 22, 2025
To all radio amateurs


These element sets describe the orbits of various satellites 
in use by the amateur radio community. For details see:
www.amsat.org/keplerian-elements-formats/

A daily update of element sets is available at:
www.amsat.org/tle/daily-bulletin.txt
or without bulletin text:
www.amsat.org/tle/dailytle.txt


AO-07
1 07530U 74089B   25052.61101219 -.00000018  00000-0  17836-3 0  9996
2 07530 101.9941  55.7229 0012040 329.3713 147.0673 12.53686302300295
UO-11
1 14781U 84021B   25052.48457421  .00002850  00000-0  31057-3 0  9999
2 14781  97.7409  21.1225 0007321 346.8374  13.2651 14.88741429185550
AO-27
1 22825U 93061C   25052.38246634  .00000273  00000-0  12155-3 0  9997
2 22825  98.7528 113.3288 0009382  72.8370 287.3839 14.30733168638244
FO-29
1 24278U 96046B   25052.58347991  .00000026  00000-0  65991-4 0  9990
2 24278  98.5865 320.6346 0348891 262.3441  93.7952 13.53238042408160
NOAA-15
1 25338U 98030A   25052.82665123  .00000368  00000-0  16943-3 0  9991
2 25338  98.5477  80.4932 0009433 319.1723  40.8750 14.26889162393033
GO-32
1 25397U 98043D   25052.50725674  .00000274  00000-0  13870-3 0  9995
2 25397  98.9585  29.4406 0001926 128.0728 232.0624 14.24257555382904
ISS
1 25544U 98067A   25052.66592661  .00018200  00000-0  33491-3 0  9999
2 25544  51.6386 159.1815 0005812 297.1686 206.1405 15.49230282497246
NO-44
1 26931U 01043C   25052.36544276  .00000521  00000-0  22637-3 0  9991
2 26931  67.0506  47.6100 0005950 264.8516  95.1907 14.31625889221616
SO-50
1 27607U 02058C   25052.60663136  .00002823  00000-0  37602-3 0  9998
2 27607  64.5542 173.6861 0043489   1.0315 359.0872 14.80995299193238
CO-55
1 27844U 03031E   25052.60768242  .00000806  00000-0  37098-3 0  9995
2 27844  98.6794  62.2676 0010475 136.3805 223.8204 14.23831120123273
CO-57
1 27848U 03031J   25052.57667375  .00000677  00000-0  31886-3 0  9995
2 27848  98.6822  62.3225 0010097 152.1133 208.0588 14.23189935123001
RS-22
1 27939U 03042A   25052.81155458  .00002504  00000-0  40882-3 0  9996
2 27939  98.3150 219.7544 0011433 356.2500 110.5986 14.71801433144970
NOAA-18
1 28654U 05018A   25052.82076412  .00000368  00000-0  21864-3 0  9994
2 28654  98.8500 133.4887 0015081  77.3873 282.8985 14.13521555 18521
CO-58
1 28895U 05043F   25052.34153289  .00003876  00000-0  65061-3 0  9998
2 28895  98.2298 195.5014 0013985 290.8091  69.1616 14.70215892 31037
CO-65
1 32785U 08021C   25052.52842969  .00010216  00000-0  77552-3 0  9994
2 32785  97.7724  23.1138 0009482 211.7312 148.3342 15.02359998912841
AAUSAT2
1 32788U 08021F   25052.52023415  .00110915  00000-0  19911-2 0  9995
2 32788  97.6068  44.5767 0005866  74.5446 285.6452 15.49477676916457
CO-66
1 32791U 08021J   25052.51313245  .00018853  00000-0  10332-2 0  9997
2 32791  97.7192  30.5276 0005383 147.2828 212.8737 15.14235884914110
RS-30
1 32953U 08025A   25052.80115323  .00000017  00000-0  50865-4 0  9990
2 32953  82.5021 294.2308 0018745 282.2069  77.6911 12.43159081760136
NOAA-19
1 33591U 09005A   25052.80960201  .00000337  00000-0  20380-3 0  9994
2 33591  99.0121 116.8519 0012911 310.4123  49.5921 14.13290522826885
SRMSAT
1 37841U 11058D   25052.80041109  .00000627  00000-0  19755-3 0  9990
2 37841  19.9720  86.7379 0011618 320.4264 195.8530 14.11366494690084
ZACUBE-1
1 39417U 13066B   25052.62231861  .00010116  00000-0  91638-3 0  9992
2 39417  97.7669  10.4254 0047693  54.3631 306.2017 14.94683915608774
Delfi-N3xt
1 39428U 13066N   25052.51285858  .00015460  00000-0  16620-2 0  9991
2 39428  97.8368 331.5517 0089124 357.3966   2.6773 14.85702945603017
GOMX-1
1 39430U 13066Q   25052.87845831  .00003848  00000-0  60972-3 0  9993
2 39430  97.6992 278.1026 0134089 176.4077 183.8124 14.66865035599617
LO-74
1 39440U 13066AA  25052.83845635  .00006077  00000-0  63918-3 0  9992
2 39440  97.8384 358.3345 0064205 173.5614 186.6443 14.88251586606604
AO-73
1 39444U 13066AE  25052.42920859  .00014644  00000-0  11756-2 0  9994
2 39444  97.7506  14.3111 0043082  32.8387 327.5499 14.99424870607368
DTUSAT-2
1 40030U 14033W   25051.87211162  .00012337  00000-0  85964-3 0  9990
2 40030  98.0427  18.7144 0011902  72.2597 287.9927 15.05527009580022
EO-80
1 40032U 14033Y   25052.43002351  .00013004  00000-0  90329-3 0  9996
2 40032  98.0328  19.0969 0009643  22.5464 337.6184 15.05648788580085
XW-2C
1 40906U 15049H   25047.62605869  .06460715  25777-5  82494-3 0  9990
2 40906  97.4284  83.7622 0006300 238.5188 121.5494 16.35922890522636
LILACSAT-2
1 40908U 15049K   25052.81433981  .00016856  00000-0  49569-3 0  9993
2 40908  97.5167  70.7753 0010153 174.8225 185.3124 15.35118557521672
IO-86
1 40931U 15052B   25038.81889873  .00001817  00000-0  15548-3 0  9993
2 40931   6.0001 108.1159 0012838 187.7041 172.2889 14.78568669506492
Horyu-4
1 41340U 16012D   25052.51643926  .00028249  00000-0  93906-3 0  9997
2 41340  30.9991 135.2239 0006311  29.8813 330.2191 15.29968949496181
Lapan A3
1 41603U 16040E   25052.80101636  .00006086  00000-0  22107-3 0  9999
2 41603  97.1403  61.7096 0009434 298.9255  61.1039 15.28599213481311
CAS-2T
1 41847U 16066G   25052.81059995  .00003499  00000-0  50525-3 0  9998
2 41847  98.4305 128.1998 0348698 144.2993 218.2067 14.42982940435475
CAS-4B
1 42759U 17034B   25052.81320176  .00054139  00000-0  99651-3 0  9999
2 42759  43.0099 237.0833 0018210 258.9527 100.9284 15.48203220425811
CAS-4A
1 42761U 17034D   25052.84084844  .00055168  00000-0  99629-3 0  9992
2 42761  43.0136 234.8442 0019481 265.0046  94.8590 15.48712401425832
TechnoSat
1 42829U 17042E   25052.72845325  .00005774  00000-0  46312-3 0  9991
2 42829  97.3892 226.6481 0011812 293.9883  66.0104 15.00409171414542
AO-91
1 43017U 17073E   25052.57680532  .00012686  00000-0  68351-3 0  9992
2 43017  97.5488 286.1546 0181357 173.5157 186.8479 15.01830429392981
S-Net D
1 43186U 18014G   25052.62318910  .00008450  00000-0  52452-3 0  9998
2 43186  97.5716 316.7053 0007994 229.5562 130.4970 15.09920793386077
S-Net B
1 43187U 18014H   25052.62730372  .00007885  00000-0  48987-3 0  9998
2 43187  97.5722 316.6756 0008799 224.2816 135.7710 15.09905858386077
S-Net A
1 43188U 18014J   25052.62391446  .00008400  00000-0  52132-3 0  9995
2 43188  97.5730 316.8087 0008710 225.1997 134.8525 15.09925129386076
S-Net C
1 43189U 18014K   25052.62945550  .00008052  00000-0  50007-3 0  9999
2 43189  97.5747 316.8102 0010402 217.4473 142.6032 15.09903208384620
Ten-Koh
1 43677U 18084G   25052.74072743  .00006123  00000-0  50362-3 0  9997
2 43677  98.0867 220.7124 0010075 265.4122  94.5949 14.99482415344075
PO-101
1 43678U 18084H   25052.77434798  .00003413  00000-0  29905-3 0  9991
2 43678  98.0948 224.8892 0007526 289.6771  70.3637 14.97372538344245
QO-100
1 43700U 18090A   25052.25670009  .00000155  00000-0  00000-0 0  9996
2 43700   0.0145 186.9993 0001155 169.0264 273.5992  1.00269619 22859
MinXSS-2
1 43758U 18099A   25052.60938079  .00021163  00000-0  96742-3 0  9994
2 43758  97.5175 118.5948 0013562 172.1675 187.9775 15.20496010340532
AO-95
1 43770U 18099N   25052.12479267  .00012940  00000-0  71547-3 0  9993
2 43770  97.5082 111.5491 0010845 223.8994 136.1377 15.13961968340128
RANGE-A
1 43773U 18099R   25052.86590056  .00007635  00000-0  50820-3 0  9993
2 43773  97.4664 104.4134 0011415 194.2127 165.8781 15.07350680339980
MOVE-II
1 43780U 18099Y   25052.72805921  .00076505  00000-0  17171-2 0  9999
2 43780  97.4817 123.1310 0004277 182.5623 177.5604 15.43097804341018
SNUSat 2
1 43782U 18099AA  25052.37347358  .00013238  00000-0  77548-3 0  9996
2 43782  97.4774 109.3854 0013199 163.4722 196.6941 15.11855475340131
SnugLite
1 43784U 18099AC  25052.11123192  .00013552  00000-0  74364-3 0  9990
2 43784  97.4586 108.5098 0004245 158.7836 201.3573 15.14261502340208
ITASat 1
1 43786U 18099AE  25052.60285775  .00009478  00000-0  57616-3 0  9995
2 43786  97.4740 109.4092 0014433 214.2105 145.8196 15.10585634340140
EAGLET 1
1 43790U 18099AJ  25052.61846591  .00007090  00000-0  47089-3 0  9991
2 43790  97.4940 109.6847 0012209 193.2295 166.8614 15.07452810339794
ESEO
1 43792U 18099AL  25052.56652157  .00003578  00000-0  27819-3 0  9996
2 43792  97.4589 104.2833 0011048 162.3487 197.8124 15.01851407339600
CSIM
1 43793U 18099AM  25052.77874365  .00081497  00000-0  18157-2 0  9997
2 43793  97.4994 125.1790 0007058 158.9379 201.2160 15.43281034340861
JO-97
1 43803U 18099AX  25052.62412774  .00016791  00000-0  85422-3 0  9990
2 43803  97.4830 112.8566 0008736 155.7484 204.4162 15.16871640340384
Suomi 100
1 43804U 18099AY  25052.41822823  .00015236  00000-0  81599-3 0  9992
2 43804  97.4903 112.2105 0013912 159.5270 200.6523 15.15026425340309
ISAT
1 43879U 18111D   25052.31068106  .00025440  00000-0  10644-2 0  9994
2 43879  97.6028 324.7526 0008673 204.9982 155.0835 15.23528179337173
UWE-4
1 43880U 18111E   25052.57472797  .00021037  00000-0  95348-3 0  9992
2 43880  97.5963 324.1545 0011634 221.0631 138.9729 15.20814439337186
Sparrow
1 43881U 18111F   25052.56606902  .00027208  00000-0  11077-2 0  9991
2 43881  97.6150 327.5133 0005349 252.7169 107.3483 15.24457339335292
Prox-1
1 44339U 19036A   25052.42048613  .00017171  00000-0  23827-2 0  9995
2 44339  23.9985  50.5082 0007283 274.7282  85.2383 14.76305878301993
SONATE
1 44400U 19038Q   25052.58489186  .00076627  00000-0  94353-3 0  9991
2 44400  97.7100  68.0218 0006411 289.2254  70.8308 15.59955038312582
